This is the latest recevied weather packets stored in our database for station/object DB0FN-10. If no packets are shown the sender has not sent any weather packets the latest 10 day(s).
| Time | Temp. | Humidity | Pressure | Rain* | Wind** | Luminosity | Snow |
|---|---|---|---|---|---|---|---|
| 1787802432 | 25.56° C | 44% | 1018.8 hPa | - | - | - | - |
| 1787801532 | 25.56° C | 45% | 1018.7 hPa | - | - | - | - |
| 1787800632 | 25.56° C | 46% | 1018.7 hPa | - | - | - | - |
| 1787799732 | 25.56° C | 45% | 1018.7 hPa | - | - | - | - |
| 1787798832 | 25.56° C | 46% | 1018.7 hPa | - | - | - | - |
| 1787797932 | 26.11° C | 45% | 1019 hPa | - | - | - | - |
| 1787797032 | 26.11° C | 45% | 1019 hPa | - | - | - | - |
| 1787796131 | 26.11° C | 44% | 1019 hPa | - | - | - | - |
| 1787795231 | 26.11° C | 45% | 1019.1 hPa | - | - | - | - |
| 1787794331 | 26.11° C | 46% | 1019.1 hPa | - | - | - | - |
| 1787793431 | 26.11° C | 45% | 1018.9 hPa | - | - | - | - |
| 1787792531 | 26.67° C | 47% | 1019.1 hPa | - | - | - | - |
| 1787791631 | 26.11° C | 50% | 1019.2 hPa | - | - | - | - |
| 1787790731 | 26.11° C | 51% | 1019.1 hPa | - | - | - | - |
| 1787789831 | 26.11° C | 51% | 1019.2 hPa | - | - | - | - |
| 1787788931 | 26.67° C | 51% | 1019.3 hPa | - | - | - | - |
| 1787788031 | 26.67° C | 51% | 1019.7 hPa | - | - | - | - |
| 1787787131 | 26.11° C | 52% | 1019.6 hPa | - | - | - | - |
| 1787786231 | 26.67° C | 51% | 1019.7 hPa | - | - | - | - |
| 1787785331 | 26.11° C | 52% | 1019.6 hPa | - | - | - | - |
| 1787784431 | 26.67° C | 52% | 1019.7 hPa | - | - | - | - |
| 1787783530 | 27.22° C | 49% | 1019.9 hPa | - | - | - | - |
| 1787782630 | 27.22° C | 50% | 1019.8 hPa | - | - | - | - |
| 1787781730 | 27.22° C | 50% | 1019.8 hPa | - | - | - | - |
| 1787780830 | 27.22° C | 49% | 1019.9 hPa | - | - | - | - |
* Rain since midnight (hover to see other rain measurements)
** Current wind speed in m/s (hover to see current wind gust speed)